Location: Goettingen
(51.5300°N, 9.9433°E)
Time: 20:38:07
(UTC+01:00)

ISS - Pass Details

Date: 28 February 2019
Orbit: 406 x 411 km, 51.6° (Epoch: 22 March)

Event Time Altitude Azimuth Distance (km) Brightness Sun altitude
Exits shadow 05:29:28 18° 199° (SSW) 1,061 -2.0 -16.2°
Maximum altitude 05:31:11 30° 150° (SSE) 764 -2.2 -15.9°
Drops below altitude 10° 05:34:07 10° 87° (E) 1,470 0.4 -15.4°
Sets 05:36:21 0° 77° (ENE) 2,334 1.9 -15.1°
